Find Starlink 5197

NORAD ID: 54097 Int'l Des: 2022-136 Owner: SPXS Country: US Constellation: starlink operational
LEOCIRCULAR

当前视图

正在加载3D地球...

关于 Starlink 5197

正在加载描述...

即将过境

Passes for default location (London). Set your location on the main map for personalized predictions.

高度历史

Loading altitude history...

两行轨道根数

1 54097U 22136AY 26150.41536868 -.00000012 00000-0 17320-4 0 9995
2 54097 53.1981 302.1592 0001234 83.5865 276.5267 15.08836612199678
Epoch: May 30, 2026 • Age: 37 hours

当前状态

高度 542.8 km
速度 7.59 km/s
星下点 -10.52°S, 60.82°E
发射日期 Oct 20, 2022
运行时间 3.6 years
类型 internet

技术详情

分类 Payload
质量 305.00 kg
干质量 290.00 kg
总质量 305.00 kg
长度 0.20 m
直径 2.80 m
跨度 9.00 m
形状 Box + pan
制造商 SPXS
平台类型 Starlink
阶段状态 In Orbit
所有者/国家 SPXS/US

Most Searched